[[{"header":{"parameterUnit":"m.s-1","parameterCategory":1,"la1":30.2991,"la2":30.254,"lo1":-89.0895,"lo2":-89.0444,"dy":0.0017,"dx":0.0017,"nx":28,"ny":28,"refTime":"2024-08-26T09:00:00:Z","depth":0,"parameterNumber":2,"parameterNumberName":"U-component_of_WINDS"},"data":[0,0,0,0,0,0,0,0,0,0,0,0,0,0,0,0,0,0,0,0,0,0,0,0,0,0,0,0,0,0,0,0,0,0,0,0,0,0,0,0,0,0,0,0,0,0,0,0,0,0,0,0,0,0,0,0,0,0,-1.4892,-1.4891,0,-1.483,-1.4829,-1.4828,-1.4697,-1.4694,-1.4692,-1.4689,-1.4628,-1.4629,-1.463,0,0,0,0,0,0,0,0,0,0,0,0,0,-1.4899,-1.49,-1.4892,-1.4891,-1.489,-1.483,-1.4829,-1.4828,-1.4697,-1.4694,-1.4691,-1.4688,-1.4628,-1.4629,-1.463,0,0,0,0,0,0,0,0,0,0,0,0,0,-1.4873,-1.49,-1.4892,-1.4818,-1.4811,-1.483,-1.4829,-1.4828,-1.4698,-1.4694,-1.469,-1.4687,-1.4628,-1.4629,-1.463,-1.4717,0,0,-1.4634,-1.4634,0,0,0,0,0,0,0,0,-1.4874,-1.4872,-1.483,-1.4823,-1.4815,-1.4767,-1.4809,-1.4791,-1.4699,-1.4741,-1.4689,-1.4685,-1.4678,-1.4675,-1.4672,-1.4714,-1.4712,-1.4634,-1.4635,-1.4635,-1.4636,0,0,0,0,0,0,0,-1.4876,-1.4874,-1.4867,-1.4829,-1.482,-1.4788,-1.478,-1.4805,-1.4733,-1.4737,-1.4727,-1.4722,-1.4673,-1.4671,-1.4669,-1.4711,-1.4634,-1.4635,-1.4636,-1.4636,-1.4821,-1.4825,0,0,0,0,0,0,-1.4889,-1.4877,-1.4869,-1.4865,-1.4835,-1.4791,-1.4782,-1.4786,-1.4732,-1.472,-1.4725,-1.4716,-1.4671,-1.4668,-1.4667,-1.4765,-1.4635,-1.4637,-1.4637,-1.4817,-1.4822,-1.4827,0,0,0,0,0,0,-1.4889,-1.4889,-1.4872,-1.4868,-1.4864,-1.4795,-1.4801,-1.4787,-1.4785,-1.4723,-1.4709,-1.4736,-1.4667,-1.4665,-1.4705,-1.4761,-1.4637,-1.4638,-1.4812,-1.4819,-1.4824,-1.4963,0,0,0,0,0,0,-1.489,-1.489,-1.4923,-1.487,-1.4864,-1.4912,-1.4805,-1.4789,-1.4787,-1.4774,-1.473,-1.4718,-1.4664,-1.4704,-1.4707,-1.4761,-1.4639,-1.4807,-1.4815,-1.4822,-1.4953,-1.4973,-1.499,0,0,0,0,0,-1.4891,-1.4965,-1.4925,-1.4925,-1.4903,-1.4915,-1.4912,-1.4847,-1.4792,-1.4824,-1.4784,-1.472,-1.4754,-1.4709,-1.4711,-1.4766,-1.4803,-1.4813,-1.4822,-1.4945,-1.4969,-1.499,0,0,0,0,0,0,-1.5027,-1.4957,-1.4912,-1.4971,-1.495,-1.4893,-1.4931,-1.4875,-1.487,-1.4858,-1.4779,-1.477,-1.4821,-1.4797,-1.4749,-1.4847,-1.4768,-1.4779,-1.4861,-1.4884,-1.4902,-1.4907,-1.464,0,0,0,0,0,-1.5064,-1.5078,-1.5016,-1.5074,-1.5066,-1.5001,-1.5004,-1.4955,-1.4931,-1.4921,-1.4884,-1.4864,-1.4869,-1.4875,-1.4877,-1.4948,-1.4937,-1.4987,-1.5006,-1.5021,-1.5031,-1.5067,-1.5088,-1.4857,-1.4857,-1.4857,0,0,-1.514,-1.5103,-1.5118,-1.5101,-1.5079,-1.5096,-1.4994,-1.5017,-1.503,-1.4925,-1.4961,-1.4933,-1.4904,-1.496,-1.4983,-1.4942,-1.5092,-1.5033,-1.5046,-1.5047,-1.5079,-1.5101,-1.512,-1.4863,-1.4862,-1.4861,0,0,-1.5288,-1.5262,-1.5307,-1.5287,-1.5254,-1.521,-1.5221,-1.5172,-1.5149,-1.5184,-1.5105,-1.5119,-1.5131,-1.5113,-1.5106,-1.5247,-1.5187,-1.5249,-1.5347,-1.5383,-1.5401,-1.5417,-1.5467,-1.5486,-1.5259,-1.526,-1.526,0,-1.5388,-1.541,-1.5338,-1.5366,-1.536,-1.5265,-1.531,-1.5294,-1.5265,-1.5264,-1.5218,-1.523,-1.5204,-1.5255,-1.5289,-1.5286,-1.5296,-1.5255,-1.5404,-1.5419,-1.5433,-1.548,-1.5499,-1.5268,-1.5267,-1.5266,-1.5265,0,-1.5534,-1.5551,-1.5592,-1.5564,-1.5563,-1.56,-1.5534,-1.5542,-1.5493,-1.5454,-1.549,-1.5455,-1.5448,-1.5456,-1.541,-1.55,-1.5476,-1.5418,-1.5337,-1.5464,-1.5507,-1.5524,-1.5279,-1.5276,-1.5274,-1.5272,0,0,-1.5768,-1.5699,-1.5715,-1.5701,-1.5658,-1.567,-1.5702,-1.5694,-1.5702,-1.5685,-1.571,-1.5721,-1.5667,-1.5659,-1.5609,-1.5641,-1.5754,-1.5579,-1.5577,-1.5613,-1.5852,-1.5896,-1.5919,-1.5714,-1.5717,-1.572,-1.5855,0,-1.5907,-1.5957,-1.5893,-1.5957,-1.5972,-1.5881,-1.5908,-1.5885,-1.5849,-1.5857,-1.5817,-1.5826,-1.5754,-1.5749,-1.5775,-1.5735,-1.5801,-1.5724,-1.5737,-1.5739,-1.5749,-1.5941,-1.5988,-1.6117,-1.5871,-1.5874,-1.5876,0,-1.6076,-1.6066,-1.6132,-1.6083,-1.6087,-1.6113,-1.61,-1.6108,-1.6079,-1.6051,-1.6042,-1.5981,-1.601,-1.593,-1.5968,-1.5917,-1.5919,-1.59,-1.5903,-1.5903,-1.5816,-1.5947,-1.6157,-1.6177,-1.5901,-1.5899,-1.5897,0,-1.6241,-1.6243,-1.6282,-1.6273,-1.6218,-1.6238,-1.6216,-1.6183,-1.6182,-1.6171,-1.617,-1.6162,-1.6159,-1.6155,-1.6094,-1.6042,-1.614,-1.6056,-1.6118,-1.6119,-1.6143,-1.6143,-1.6358,-1.6143,-1.6143,-1.6143,-1.6142,0,-1.6403,-1.6448,-1.6356,-1.638,-1.6427,-1.6352,-1.64,-1.6369,-1.634,-1.6357,-1.6278,-1.6296,-1.6214,-1.6223,-1.6176,-1.6215,-1.6214,-1.6192,-1.6179,-1.62,-1.6203,-1.62,-1.619,-1.6148,-1.6147,-1.6146,-1.6145,0,-1.6596,-1.6536,-1.6573,-1.6516,-1.6503,-1.654,-1.6492,-1.6512,-1.647,-1.6493,-1.6494,-1.6429,-1.6435,-1.6374,-1.6369,-1.6338,-1.6399,-1.637,-1.6409,-1.64,-1.6465,-1.6461,-1.6687,-1.6713,-1.6482,-1.6484,-1.6486,0,-1.6704,-1.6736,-1.6682,-1.6687,-1.6669,-1.6678,-1.6676,-1.6603,-1.6605,-1.6574,-1.6599,-1.6598,-1.6594,-1.6609,-1.6561,-1.6557,-1.6528,-1.6608,-1.6527,-1.6547,-1.653,-1.6529,-1.6532,-1.6625,-1.6628,-1.663,-1.6632,0,-1.6903,-1.6871,-1.6871,-1.6861,-1.6861,-1.6849,-1.6833,-1.6842,-1.6762,-1.6768,-1.6773,-1.677,-1.6764,-1.6765,-1.6751,-1.6728,-1.6668,-1.6658,-1.6672,-1.6694,-1.6715,-1.6705,-1.6455,-1.6653,-1.6651,-1.665,-1.6649,-1.6648,-1.7056,-1.708,-1.7045,-1.7048,-1.7028,-1.7014,-1.703,-1.699,-1.6992,-1.6981,-1.6938,-1.6951,-1.692,-1.6895,-1.6878,-1.6888,-1.6849,-1.687,-1.6875,-1.6881,-1.6894,-1.6713,-1.6885,-1.6884,-1.6883,-1.6883,-1.6882,0,-1.7251,-1.7224,-1.7227,-1.7206,-1.7208,-1.7148,-1.7127,-1.7133,-1.7145,-1.7121,-1.7118,-1.7124,-1.7125,-1.7077,-1.7071,-1.7088,-1.706,-1.7089,-1.7087,-1.7083,-1.6928,-1.6917,-1.7111,-1.7111,-1.7111,-1.7111,-1.7111,-1.7111,-1.7352,-1.7389,-1.7354,-1.7379,-1.7352,-1.7363,-1.7356,-1.7343,-1.7323,-1.7333,-1.7333,-1.7301,-1.7267,-1.7258,-1.7256,-1.7241,-1.7243,-1.7282,-1.7259,-1.7116,-1.7094,-1.7073,-1.7062,-1.7283,-1.7283,-1.7413,-1.7414,-1.7415]},{"header":{"parameterUnit":"m.s-1","parameterCategory":1,"la1":30.2991,"la2":30.254,"lo1":-89.0895,"lo2":-89.0444,"dy":0.0017,"dx":0.0017,"nx":28,"ny":28,"refTime":"2024-08-26T09:00:00:Z","depth":0,"parameterNumber":3,"parameterNumberName":"V-component_of_WINDS"},"data":[0,0,0,0,0,0,0,0,0,0,0,0,0,0,0,0,0,0,0,0,0,0,0,0,0,0,0,0,0,0,0,0,0,0,0,0,0,0,0,0,0,0,0,0,0,0,0,0,0,0,0,0,0,0,0,0,0,0,-1.7427,-1.7429,0,-1.7584,-1.7586,-1.7588,-1.7685,-1.7685,-1.7686,-1.7686,-1.7847,-1.7851,-1.7855,0,0,0,0,0,0,0,0,0,0,0,0,0,-1.721,-1.7214,-1.7427,-1.7429,-1.7431,-1.7584,-1.7586,-1.7588,-1.7685,-1.7685,-1.7686,-1.7686,-1.7846,-1.7851,-1.7855,0,0,0,0,0,0,0,0,0,0,0,0,0,-1.733,-1.7215,-1.7427,-1.7497,-1.7505,-1.7584,-1.7586,-1.7589,-1.7685,-1.7685,-1.7686,-1.7687,-1.7845,-1.785,-1.7856,-1.7876,0,0,-1.7873,-1.7876,0,0,0,0,0,0,0,0,-1.7323,-1.7338,-1.7485,-1.7493,-1.7502,-1.7616,-1.7569,-1.7685,-1.7684,-1.7616,-1.7686,-1.7687,-1.777,-1.7782,-1.781,-1.7884,-1.7891,-1.7874,-1.7877,-1.788,-1.7881,0,0,0,0,0,0,0,-1.7314,-1.7331,-1.7489,-1.7487,-1.7497,-1.7521,-1.7539,-1.7592,-1.7687,-1.7622,-1.763,-1.7647,-1.7774,-1.7804,-1.7814,-1.7893,-1.7874,-1.7879,-1.7882,-1.7885,-1.7992,-1.7991,0,0,0,0,0,0,-1.7295,-1.7324,-1.7484,-1.7494,-1.7412,-1.7525,-1.7545,-1.7578,-1.7687,-1.7704,-1.7646,-1.7651,-1.7794,-1.7807,-1.782,-1.7851,-1.788,-1.7885,-1.7889,-1.7993,-1.7992,-1.7991,0,0,0,0,0,0,-1.729,-1.7308,-1.7478,-1.7411,-1.7435,-1.7528,-1.7565,-1.7581,-1.7611,-1.7705,-1.7722,-1.7659,-1.7795,-1.7812,-1.7862,-1.7858,-1.7888,-1.7893,-1.7993,-1.7992,-1.7991,-1.7912,0,0,0,0,0,0,-1.7283,-1.7306,-1.7314,-1.7411,-1.7438,-1.7516,-1.7565,-1.7584,-1.762,-1.7628,-1.7721,-1.7737,-1.7797,-1.7852,-1.7867,-1.7866,-1.7897,-1.7994,-1.7993,-1.7992,-1.7915,-1.7908,-1.7902,0,0,0,0,0,-1.7275,-1.7286,-1.7314,-1.7333,-1.745,-1.7516,-1.7532,-1.76,-1.7619,-1.7629,-1.7689,-1.7734,-1.7856,-1.7857,-1.7874,-1.7875,-1.7995,-1.7993,-1.7992,-1.7918,-1.791,-1.7903,0,0,0,0,0,0,-1.7187,-1.73,-1.7333,-1.7375,-1.7435,-1.7532,-1.7546,-1.7589,-1.7645,-1.765,-1.7732,-1.7752,-1.7793,-1.784,-1.7838,-1.79,-1.793,-1.7932,-1.7868,-1.7861,-1.7855,-1.7842,-1.7902,0,0,0,0,0,-1.7172,-1.7216,-1.7313,-1.734,-1.7369,-1.7452,-1.7483,-1.7531,-1.7596,-1.7622,-1.7687,-1.7749,-1.7801,-1.7834,-1.7887,-1.7923,-1.7944,-1.7932,-1.7925,-1.792,-1.792,-1.7942,-1.7937,-1.7987,-1.7987,-1.7987,0,0,-1.7143,-1.721,-1.7233,-1.7324,-1.7377,-1.742,-1.7473,-1.7517,-1.755,-1.7629,-1.768,-1.7729,-1.7804,-1.7846,-1.7868,-1.7886,-1.7911,-1.7918,-1.7913,-1.7917,-1.794,-1.7935,-1.7931,-1.7986,-1.7986,-1.7986,0,0,-1.7111,-1.7166,-1.7195,-1.7246,-1.7325,-1.738,-1.7387,-1.7478,-1.7514,-1.7566,-1.7626,-1.7667,-1.7755,-1.7806,-1.7843,-1.7831,-1.7874,-1.7846,-1.7812,-1.7832,-1.7828,-1.7825,-1.782,-1.7817,-1.7846,-1.7846,-1.7846,0,-1.7064,-1.7132,-1.7205,-1.7245,-1.7283,-1.7357,-1.7387,-1.7434,-1.7525,-1.755,-1.7569,-1.7681,-1.7737,-1.7792,-1.7789,-1.7817,-1.7827,-1.7835,-1.7823,-1.7821,-1.7819,-1.7815,-1.7813,-1.7842,-1.7843,-1.7843,-1.7843,0,-1.707,-1.7116,-1.713,-1.7216,-1.7257,-1.7292,-1.737,-1.7402,-1.7446,-1.7499,-1.7551,-1.7621,-1.7689,-1.7706,-1.7749,-1.7767,-1.7776,-1.7807,-1.7839,-1.7809,-1.7806,-1.7806,-1.7837,-1.7838,-1.7839,-1.784,0,0,-1.6986,-1.7112,-1.7116,-1.7156,-1.7248,-1.7285,-1.7324,-1.7391,-1.7416,-1.7477,-1.7511,-1.7585,-1.7615,-1.7657,-1.7707,-1.7725,-1.7709,-1.7755,-1.7758,-1.7743,-1.7733,-1.7707,-1.7704,-1.7739,-1.7739,-1.7739,-1.7726,0,-1.6967,-1.7039,-1.7106,-1.7153,-1.7197,-1.7268,-1.7301,-1.7361,-1.7412,-1.7456,-1.7513,-1.7563,-1.76,-1.7626,-1.7646,-1.7707,-1.7708,-1.7709,-1.7771,-1.7772,-1.7749,-1.7703,-1.7676,-1.766,-1.7726,-1.7726,-1.7725,0,-1.6954,-1.7011,-1.7063,-1.7151,-1.7171,-1.72,-1.7267,-1.7308,-1.7378,-1.7414,-1.7461,-1.7514,-1.7557,-1.7585,-1.7647,-1.7645,-1.7675,-1.7709,-1.771,-1.7717,-1.7746,-1.7708,-1.7657,-1.7654,-1.7725,-1.7725,-1.7725,0,-1.6886,-1.6977,-1.7019,-1.7052,-1.7155,-1.7173,-1.7217,-1.7288,-1.7324,-1.7382,-1.7407,-1.7469,-1.7503,-1.7551,-1.7619,-1.7633,-1.7673,-1.7707,-1.7704,-1.7702,-1.7708,-1.7706,-1.7659,-1.7728,-1.7728,-1.7728,-1.7728,0,-1.6857,-1.6886,-1.699,-1.7016,-1.705,-1.7127,-1.7159,-1.721,-1.7272,-1.7309,-1.7375,-1.7408,-1.7497,-1.7541,-1.7595,-1.7637,-1.7652,-1.7682,-1.7696,-1.7676,-1.7672,-1.7695,-1.7698,-1.7728,-1.7728,-1.7728,-1.7728,0,-1.6787,-1.6858,-1.6909,-1.7003,-1.7027,-1.7048,-1.7129,-1.7157,-1.7211,-1.7257,-1.7273,-1.7359,-1.7414,-1.7487,-1.7566,-1.7602,-1.7637,-1.7659,-1.7613,-1.7621,-1.7613,-1.7612,-1.7579,-1.7578,-1.7648,-1.7647,-1.7647,0,-1.6763,-1.6786,-1.6883,-1.6912,-1.6954,-1.7001,-1.7038,-1.7114,-1.715,-1.7231,-1.7249,-1.731,-1.7362,-1.7447,-1.7517,-1.7577,-1.7601,-1.7585,-1.761,-1.7589,-1.7599,-1.7596,-1.7599,-1.7578,-1.7577,-1.7576,-1.7575,0,-1.6712,-1.6746,-1.6797,-1.686,-1.6902,-1.6955,-1.7011,-1.7031,-1.712,-1.7157,-1.7214,-1.7255,-1.7335,-1.7394,-1.7463,-1.7509,-1.7556,-1.7567,-1.7569,-1.7548,-1.752,-1.7534,-1.7595,-1.7567,-1.7568,-1.7568,-1.7569,-1.7569,-1.6664,-1.6688,-1.6759,-1.6813,-1.6864,-1.6915,-1.6945,-1.7004,-1.7053,-1.7124,-1.7167,-1.7222,-1.7291,-1.739,-1.7433,-1.7478,-1.7496,-1.75,-1.7501,-1.75,-1.7493,-1.7513,-1.7491,-1.7491,-1.7492,-1.7492,-1.7492,0,-1.6616,-1.6666,-1.6715,-1.6791,-1.6833,-1.6875,-1.6939,-1.6972,-1.7019,-1.708,-1.713,-1.7196,-1.7254,-1.7328,-1.739,-1.7412,-1.7435,-1.7426,-1.7424,-1.7434,-1.7473,-1.7464,-1.7406,-1.7406,-1.7406,-1.7406,-1.7406,-1.7406,-1.6596,-1.6639,-1.6681,-1.6749,-1.6799,-1.6854,-1.6887,-1.6934,-1.6983,-1.7053,-1.7101,-1.7149,-1.7215,-1.7284,-1.7338,-1.7359,-1.7378,-1.7362,-1.7388,-1.7423,-1.7431,-1.7438,-1.7431,-1.7366,-1.7366,-1.7345,-1.7345,-1.7345]}]]